Weather History for KHON - December, 2013

Change the Weather History Date:

Thursday, December 19, 2013

  Actual Average Record
Temperature  
Mean Temperature 14 °F 18 °F  
Max Temperature 26 °F 28 °F 57 °F (1894)
Min Temperature 1 °F 8 °F -24 °F (1955)
Degree Days  
Heating Degree Days 51 47  
Month to date heating degree days 984 844  
Since 1 July heating degree days 2621 2546  
Cooling Degree Days 0 0  
Month to date cooling degree days 0 0  
Year to date cooling degree days 848 742  
Moisture  
Dew Point 1 °F    
Average Humidity 80    
Maximum Humidity 87    
Minimum Humidity 73    
Precipitation  
Precipitation 0.14 in 0.02 in 0.32 in (1960)
Month to date precipitation 0.63 0.32  
Year to date precipitation 24.81 22.70  
Snow  
Snow 2.10 in 0.30 in 5.10 in (1960)
Month to date snowfall 7.6 4.9  
Since 1 July snowfall 10.1 13.2  
Snow Depth T in    
Sea Level Pressure  
Sea Level Pressure 30.08 in    
Wind  
Wind Speed 16 mph (North)    
Max Wind Speed 24 mph    
Max Gust Speed 31 mph    
Visibility 5 miles    
Events Fog , Snow    
T = Trace of Precipitation, MM = Missing Value Source: NWS Daily Summary

Daily Weather History Graph

Daily Weather History Graph

Search for Another Location

Airport or City:

Trip Planner

Search our weather history database for the weather conditions in past years. The results will help you decide how hot, cold, wet, or windy it might be!

Date:

Astronomy

Dec. 19, 2013 Rise Set
Actual Time 8:04 AM CST 4:55 PM CST
Civil Twilight 7:31 AM CST 5:28 PM CST
Nautical Twilight 6:54 AM CST 6:05 PM CST
Astronomical Twilight 6:19 AM CST 6:41 PM CST
Moon 7:27 PM CST (12/19) 9:20 AM CST (12/19)
Length of Visible Light 9h 57m
Length of Day
8h 50m
Waning Gibbous, 95% of the Moon is Illuminated
Dec 19
Waning Gibbous
Dec 25
Last Quarter
Jan 1
New
Jan 7
First Quarter
Jan 15
Full

Hourly Weather History & Observations

Time (CST) Temp. Windchill Dew Point Humidity Pressure Visibility Wind Dir Wind Speed Gust Speed Precip Events Conditions
12:46 AM 26.6 °F 13.8 °F 21.2 °F 80% 29.88 in 10.0 mi NNE 17.3 mph - N/A   Overcast
12:55 AM 26.1 °F 14.0 °F 21.0 °F 81% 29.92 in 10.0 mi NNE 15.0 mph - N/A   Overcast
1:55 AM 24.1 °F 10.6 °F 17.1 °F 75% 29.95 in 10.0 mi NNE 17.3 mph 24.2 mph N/A   Overcast
2:14 AM 21.2 °F 7.3 °F 15.8 °F 80% 29.94 in 10.0 mi NNE 16.1 mph 24.2 mph N/A   Scattered Clouds
2:55 AM 18.0 °F 3.1 °F 10.9 °F 74% 30.00 in 10.0 mi North 16.1 mph 25.3 mph N/A   Clear
3:55 AM 14.0 °F -2.5 °F 8.1 °F 77% 30.03 in 10.0 mi North 17.3 mph 25.3 mph N/A   Partly Cloudy
4:55 AM 10.9 °F -6.5 °F 6.1 °F 81% 30.04 in 10.0 mi North 17.3 mph - N/A   Clear
5:55 AM 10.0 °F -5.9 °F 3.0 °F 73% 30.06 in 10.0 mi NNE 13.8 mph 20.7 mph N/A   Clear
6:55 AM 7.0 °F -9.8 °F 1.0 °F 77% 30.08 in 10.0 mi North 13.8 mph - N/A   Clear
7:55 AM 6.1 °F -9.5 °F -0.0 °F 76% 30.09 in 10.0 mi North 11.5 mph - N/A   Clear
8:55 AM 3.9 °F -12.2 °F -2.0 °F 76% 30.11 in 10.0 mi North 11.5 mph - N/A   Clear
9:55 AM 3.9 °F -13.0 °F -2.0 °F 76% 30.13 in 10.0 mi North 12.7 mph - N/A   Clear
10:55 AM 5.0 °F -13.0 °F -2.0 °F 73% 30.13 in 10.0 mi North 15.0 mph - N/A   Clear
11:55 AM 5.0 °F -14.2 °F -0.9 °F 76% 30.13 in 10.0 mi North 17.3 mph - N/A   Mostly Cloudy
12:55 PM 6.1 °F -13.8 °F -0.0 °F 76% 30.10 in 10.0 mi North 19.6 mph - N/A   Overcast
1:55 PM 5.0 °F -14.7 °F -0.9 °F 76% 30.08 in 10.0 mi North 18.4 mph - N/A   Overcast
2:48 PM 5.0 °F -15.2 °F -0.4 °F 78% 30.01 in 2.5 mi North 19.6 mph 27.6 mph 0.00 in Snow Light Snow
2:55 PM 3.9 °F -17.1 °F -0.9 °F 80% 30.10 in 0.8 mi North 20.7 mph - 0.00 in Snow Light Snow
3:39 PM 3.2 °F -19.0 °F -2.2 °F 78% 30.05 in 0.2 mi North 23.0 mph - 0.01 in Snow Heavy Snow
3:55 PM 3.0 °F -18.3 °F -0.9 °F 84% 30.14 in 0.5 mi North 20.7 mph - 0.01 in Fog , Snow Snow
4:29 PM 3.2 °F -17.1 °F -2.2 °F 78% 30.06 in 0.8 mi North 18.4 mph - 0.01 in Snow Light Snow
4:36 PM 1.4 °F -19.9 °F -2.2 °F 85% 30.05 in 1.0 mi North 19.6 mph 25.3 mph 0.01 in Snow Light Snow
4:55 PM 1.9 °F -16.2 °F -2.0 °F 83% 30.14 in 1.5 mi North 13.8 mph 27.6 mph 0.01 in Snow Light Snow
5:11 PM 1.4 °F -17.6 °F -2.2 °F 85% 30.04 in 1.2 mi North 15.0 mph 25.3 mph 0.00 in Snow Light Snow
5:55 PM 1.9 °F -19.8 °F -4.0 °F 76% 30.14 in 1.5 mi North 20.7 mph 28.8 mph 0.00 in Snow Light Snow
6:53 PM 1.4 °F -20.5 °F -4.0 °F 78% 30.05 in 1.8 mi North 20.7 mph 27.6 mph 0.00 in Snow Light Snow
6:55 PM 1.0 °F -19.9 °F -4.0 °F 79% 30.15 in 1.8 mi North 18.4 mph - 0.00 in Snow Light Snow
7:14 PM 1.4 °F -18.8 °F -2.2 °F 85% 30.07 in 1.2 mi North 17.3 mph - 0.01 in Snow Light Snow
7:32 PM 1.4 °F -17.6 °F -2.2 °F 85% 30.07 in 1.0 mi North 15.0 mph - 0.02 in Snow Light Snow
7:45 PM 1.4 °F -18.2 °F -2.2 °F 85% 30.07 in 0.8 mi North 16.1 mph - 0.02 in Snow Light Snow
7:55 PM 1.9 °F -17.5 °F -2.9 °F 80% 30.17 in 0.8 mi North 16.1 mph - 0.02 in Snow Light Snow
8:09 PM 1.4 °F -17.6 °F -2.2 °F 85% 30.08 in 1.0 mi North 15.0 mph - 0.01 in Snow Light Snow
8:37 PM 1.4 °F -16.9 °F -2.2 °F 85% 30.08 in 0.8 mi North 13.8 mph - 0.03 in Snow Light Snow
8:55 PM 1.9 °F -13.8 °F -2.0 °F 83% 30.18 in 0.8 mi North 10.4 mph - 0.04 in Snow Light Snow
9:33 PM 3.2 °F -14.6 °F -2.2 °F 78% 30.08 in 1.0 mi NNW 13.8 mph - 0.04 in Snow Light Snow
9:55 PM 3.0 °F -15.5 °F -0.9 °F 84% 30.18 in 1.5 mi NNW 15.0 mph - 0.04 in Snow Light Snow
10:13 PM 3.2 °F -15.9 °F -2.2 °F 78% 30.09 in 1.5 mi NNW 16.1 mph - 0.01 in Snow Light Snow
10:50 PM 3.2 °F -14.6 °F -0.4 °F 85% 30.08 in 2.0 mi North 13.8 mph - 0.01 in Snow Light Snow
10:55 PM 3.0 °F -16.1 °F -0.9 °F 84% 30.18 in 2.0 mi North 16.1 mph - 0.01 in Snow Light Snow
11:36 PM 3.2 °F -15.3 °F -2.2 °F 78% 30.09 in 3.0 mi North 15.0 mph - 0.01 in Snow Light Snow
11:55 PM 3.0 °F -14.8 °F -2.0 °F 80% 30.18 in 6.0 mi North 13.8 mph - 0.01 in Snow Light Snow